Weather History for KHIF - February, 2013

Change the Weather History Date:

Saturday, February 23, 2013

  Actual Average Record
Temperature  
Mean Temperature 27 °F -  
Max Temperature 33 °F 37 °F 53 °F (2014)
Min Temperature 17 °F 23 °F 17 °F (2013)
Degree Days  
Heating Degree Days 38    
Moisture  
Dew Point 21 °F    
Average Humidity 79    
Maximum Humidity 93    
Minimum Humidity 48    
Precipitation  
Precipitation 0.20 in - - ()
Sea Level Pressure  
Sea Level Pressure 29.85 in    
Wind  
Wind Speed 12 mph (West)    
Max Wind Speed 23 mph    
Max Gust Speed 30 mph    
Visibility 4 miles    
Events Fog , Snow    
Averages and records for this station are not official NWS values.
T = Trace of Precipitation, MM = Missing Value Source: NWS Daily Summary

Daily Weather History Graph

Daily Weather History Graph

Search for Another Location

Airport or City:

Trip Planner

Search our weather history database for the weather conditions in past years. The results will help you decide how hot, cold, wet, or windy it might be!

Date:

Astronomy

Feb. 23, 2013 Rise Set
Actual Time 7:10 AM MST 6:12 PM MST
Civil Twilight 6:42 AM MST 6:40 PM MST
Nautical Twilight 6:10 AM MST 7:12 PM MST
Astronomical Twilight 5:39 AM MST 7:43 PM MST
Moon 4:25 PM MST (2/23) 5:36 AM MST (2/23)
Length of Visible Light 11h 57m
Length of Day
11h 01m
Waxing Gibbous, 95% of the Moon is Illuminated
Feb 23
Waxing Gibbous
Feb 25
Full
Mar 4
Last Quarter
Mar 11
New
Mar 19
First Quarter

Hourly Weather History & Observations

Time (MST) Temp. Windchill Dew Point Humidity Pressure Visibility Wind Dir Wind Speed Gust Speed Precip Events Conditions
12:48 AM 28.4 °F 18.0 °F 17.6 °F 64% 29.98 in 10.0 mi SSW 12.7 mph - N/A   Scattered Clouds
12:53 AM 28.4 °F 18.0 °F 17.6 °F 64% 29.98 in 10.0 mi SSW 12.7 mph - N/A   Mostly Cloudy
12:58 AM 28.8 °F 18.4 °F 17.4 °F 63% 30.01 in 10.0 mi South 12.7 mph - N/A   Mostly Cloudy
1:08 AM 28.4 °F 17.0 °F 17.6 °F 64% 29.97 in 10.0 mi South 15.0 mph - N/A   Scattered Clouds
1:13 AM 28.4 °F 15.8 °F 15.8 °F 59% 29.97 in 10.0 mi South 18.4 mph - N/A   Mostly Cloudy
1:58 AM 29.3 °F 17.3 °F 16.3 °F 58% 29.98 in 10.0 mi South 17.3 mph - N/A   Overcast
2:58 AM 29.3 °F 17.0 °F 15.6 °F 57% 29.93 in 10.0 mi South 18.4 mph - N/A   Overcast
3:28 AM 30.2 °F 18.9 °F 14.0 °F 51% 29.88 in 10.0 mi South 16.1 mph - N/A   Scattered Clouds
3:33 AM 30.2 °F 18.5 °F 15.8 °F 55% 29.88 in 10.0 mi South 17.3 mph - N/A   Mostly Cloudy
3:53 AM 30.2 °F 18.9 °F 14.0 °F 51% 29.87 in 10.0 mi South 16.1 mph - N/A   Mostly Cloudy
3:58 AM 29.7 °F 18.2 °F 14.2 °F 53% 29.90 in 10.0 mi South 16.1 mph - N/A   Overcast
4:28 AM 30.2 °F 18.5 °F 14.0 °F 51% 29.84 in 10.0 mi South 17.3 mph - N/A   Overcast
4:58 AM 30.2 °F 17.4 °F 14.7 °F 53% 29.87 in 10.0 mi South 20.7 mph - N/A   Overcast
5:28 AM 30.2 °F 18.1 °F 14.0 °F 51% 29.81 in 10.0 mi South 18.4 mph - N/A   Overcast
5:58 AM 30.0 °F 18.3 °F 14.4 °F 52% 29.83 in 10.0 mi South 17.3 mph - N/A   Overcast
6:18 AM 32.0 °F 20.8 °F 14.0 °F 48% 29.77 in 10.0 mi South 17.3 mph - N/A   Overcast
6:23 AM 32.0 °F 21.2 °F 14.0 °F 48% 29.77 in 10.0 mi South 16.1 mph - N/A   Overcast
6:33 AM 32.0 °F 21.2 °F 14.0 °F 48% 29.76 in 10.0 mi South 16.1 mph - N/A   Overcast
6:58 AM 31.6 °F 19.7 °F 14.4 °F 49% 29.77 in 10.0 mi SSE 19.6 mph - N/A   Overcast
7:03 AM 32.0 °F 20.8 °F 14.0 °F 48% 29.73 in 10.0 mi SSE 17.3 mph - N/A   Overcast
7:13 AM 32.0 °F 20.5 °F 14.0 °F 48% 29.72 in 10.0 mi SSE 18.4 mph - N/A   Overcast
7:18 AM 32.0 °F 19.5 °F 14.0 °F 48% 29.72 in 10.0 mi South 21.9 mph - N/A   Overcast
7:33 AM 32.0 °F 19.8 °F 14.0 °F 48% 29.71 in 10.0 mi South 20.7 mph - N/A   Overcast
7:53 AM 32.0 °F 19.8 °F 15.8 °F 51% 29.71 in 10.0 mi SSE 20.7 mph - N/A   Overcast
7:55 AM 32.0 °F 19.8 °F 15.8 °F 51% 29.71 in 10.0 mi SSE 20.7 mph - N/A   Overcast
7:58 AM 32.7 °F 20.1 °F 16.5 °F 51% 29.73 in 8.0 mi SSE 23.0 mph 29.9 mph 0.00 in   Overcast
8:03 AM 32.0 °F 20.8 °F 17.6 °F 55% 29.70 in 8.0 mi SSE 17.3 mph 29.9 mph N/A   Overcast
8:08 AM 32.0 °F 21.2 °F 17.6 °F 55% 29.70 in 10.0 mi SSE 16.1 mph - N/A   Overcast
8:48 AM 32.0 °F 22.1 °F 17.6 °F 55% 29.68 in 10.0 mi SSE 13.8 mph - N/A   Overcast
8:53 AM 32.0 °F 24.2 °F 17.6 °F 55% 29.69 in 10.0 mi South 9.2 mph - N/A   Overcast
8:58 AM 33.6 °F 28.4 °F 16.9 °F 50% 29.73 in 10.0 mi Variable 5.8 mph - 0.00 in   Overcast
8:59 AM 33.8 °F 25.8 °F 17.6 °F 52% 29.71 in 10.0 mi SW 10.4 mph - N/A   Overcast
9:12 AM 32.0 °F 19.8 °F 17.6 °F 55% 29.72 in 10.0 mi WSW 20.7 mph - N/A Snow Light Snow
9:17 AM 32.0 °F 20.8 °F 17.6 °F 55% 29.73 in 6.0 mi WSW 17.3 mph - N/A Snow Light Snow
9:26 AM 32.0 °F 19.2 °F 19.4 °F 60% 29.74 in 3.0 mi West 23.0 mph 25.3 mph N/A Snow Light Snow
9:31 AM 32.0 °F 20.5 °F 23.0 °F 69% 29.75 in 1.2 mi West 18.4 mph 25.3 mph N/A Snow Light Snow
9:36 AM 30.2 °F 18.9 °F 24.8 °F 80% 29.76 in 0.5 mi WNW 16.1 mph - N/A Snow Snow
9:40 AM 28.4 °F 17.5 °F 24.8 °F 86% 29.76 in 0.5 mi NW 13.8 mph - N/A Fog , Snow Light Freezing Fog
9:45 AM 28.4 °F 19.1 °F 26.6 °F 93% 29.77 in 0.5 mi NNW 10.4 mph - N/A Fog , Snow Light Freezing Fog
9:50 AM 28.4 °F 18.5 °F 26.6 °F 93% 29.77 in 0.8 mi NNW 11.5 mph - N/A Snow Light Snow
9:55 AM 28.4 °F 20.4 °F 24.8 °F 86% 29.77 in 0.8 mi North 8.1 mph - N/A Snow Light Snow
9:58 AM 28.2 °F 20.2 °F 25.5 °F 90% 29.81 in 0.8 mi North 8.1 mph - 0.00 in Snow Light Snow
10:03 AM 28.4 °F 20.4 °F 24.8 °F 86% 29.77 in 0.5 mi NNW 8.1 mph - N/A Fog , Snow Light Freezing Fog
10:06 AM 28.4 °F 20.4 °F 24.8 °F 86% 29.77 in 0.5 mi NNW 8.1 mph - N/A Fog , Snow Light Freezing Fog
10:11 AM 28.4 °F 20.4 °F 24.8 °F 86% 29.77 in 0.2 mi NW 8.1 mph - N/A Fog , Snow Light Freezing Fog
10:21 AM 28.4 °F 19.1 °F 24.8 °F 86% 29.78 in 0.5 mi NW 10.4 mph - N/A Fog , Snow Light Freezing Fog
10:26 AM 28.4 °F 22.2 °F 24.8 °F 86% 29.78 in 0.5 mi NNW 5.8 mph - N/A Fog , Snow Light Freezing Fog
10:31 AM 28.4 °F 23.3 °F 24.8 °F 86% 29.78 in 0.8 mi NNW 4.6 mph - N/A Snow Light Snow
10:41 AM 28.4 °F 22.2 °F 24.8 °F 86% 29.79 in 1.0 mi WNW 5.8 mph - N/A Snow Light Snow
10:46 AM 28.4 °F 21.2 °F 24.8 °F 86% 29.79 in 0.5 mi West 6.9 mph - N/A Fog , Snow Light Freezing Fog
10:51 AM 28.4 °F 22.2 °F 24.8 °F 86% 29.79 in 0.5 mi WSW 5.8 mph - N/A Fog , Snow Light Freezing Fog
10:56 AM 28.4 °F 22.2 °F 24.8 °F 86% 29.79 in 0.8 mi WSW 5.8 mph - N/A Snow Light Snow
10:58 AM 27.9 °F 21.5 °F 25.5 °F 91% 29.84 in 0.8 mi WSW 5.8 mph - 0.02 in Snow Light Snow
11:03 AM 28.4 °F 23.3 °F 24.8 °F 86% 29.79 in 1.0 mi SW 4.6 mph - N/A Snow Light Snow
11:08 AM 28.4 °F 22.2 °F 24.8 °F 86% 29.79 in 0.8 mi SW 5.8 mph - N/A Snow Light Snow
11:09 AM 28.4 °F 22.2 °F 24.8 °F 86% 29.79 in 0.8 mi WSW 5.8 mph - N/A Snow Light Snow
11:14 AM 28.4 °F 22.2 °F 24.8 °F 86% 29.79 in 0.8 mi WSW 5.8 mph - N/A Snow Light Snow
11:24 AM 28.4 °F 21.2 °F 24.8 °F 86% 29.80 in 0.8 mi WSW 6.9 mph - N/A Snow Light Snow
11:29 AM 28.4 °F 21.2 °F 24.8 °F 86% 29.80 in 0.8 mi WSW 6.9 mph - N/A Snow Light Snow
11:34 AM 28.4 °F 20.4 °F 24.8 °F 86% 29.80 in 0.8 mi WSW 8.1 mph - N/A Snow Light Snow
11:44 AM 28.4 °F 21.2 °F 24.8 °F 86% 29.80 in 0.8 mi WSW 6.9 mph - N/A Snow Light Snow
11:49 AM 28.4 °F 19.7 °F 24.8 °F 86% 29.80 in 0.8 mi SW 9.2 mph - N/A Snow Light Snow
11:54 AM 28.4 °F 19.1 °F 24.8 °F 86% 29.80 in 0.8 mi SW 10.4 mph - N/A Snow Light Snow
11:58 AM 28.0 °F 18.6 °F 25.2 °F 89% 29.86 in 0.8 mi SW 10.4 mph - 0.04 in Snow Light Snow
12:03 PM 28.4 °F 18.0 °F 24.8 °F 86% 29.81 in 0.5 mi SW 12.7 mph - N/A Fog , Snow Light Freezing Fog
12:33 PM 28.4 °F 17.5 °F 24.8 °F 86% 29.81 in 0.5 mi WSW 13.8 mph - N/A Fog , Snow Light Freezing Fog
12:43 PM 28.4 °F 17.5 °F 24.8 °F 86% 29.82 in 0.2 mi West 13.8 mph - N/A Fog , Snow Light Freezing Fog
12:44 PM 28.4 °F 17.0 °F 24.8 °F 86% 29.82 in 0.2 mi WNW 15.0 mph - N/A Fog , Snow Light Freezing Fog
12:45 PM 28.4 °F 17.5 °F 24.8 °F 86% 29.82 in 0.2 mi NW 13.8 mph - N/A Fog , Snow Light Freezing Fog
12:50 PM 26.6 °F 18.2 °F 23.0 °F 86% 29.82 in 0.2 mi NNW 8.1 mph 18.4 mph N/A Fog , Snow Heavy Freezing Fog
12:55 PM 26.6 °F 15.7 °F 23.0 °F 86% 29.83 in 0.2 mi WNW 12.7 mph - N/A Fog , Snow Heavy Freezing Fog
12:58 PM 26.1 °F 15.0 °F 22.8 °F 88% 29.88 in 0.2 mi West 12.7 mph - 0.04 in Fog , Snow Heavy Freezing Fog
1:18 PM 24.8 °F 13.4 °F 23.0 °F 93% 29.83 in 0.2 mi WNW 12.7 mph - N/A Fog , Snow Light Freezing Fog
1:23 PM 24.8 °F 13.4 °F 21.2 °F 86% 29.83 in 0.5 mi West 12.7 mph - N/A Fog , Snow Light Freezing Fog
1:33 PM 24.8 °F 13.4 °F 21.2 °F 86% 29.83 in 0.2 mi WNW 12.7 mph - N/A Snow Heavy Snow
1:38 PM 24.8 °F 14.6 °F 21.2 °F 86% 29.83 in 0.2 mi WNW 10.4 mph - N/A Snow Heavy Snow
1:43 PM 24.8 °F 16.9 °F 21.2 °F 86% 29.83 in 0.2 mi West 6.9 mph - N/A Fog , Snow Light Freezing Fog
1:48 PM 24.8 °F 16.9 °F 21.2 °F 86% 29.84 in 0.2 mi West 6.9 mph - N/A Fog , Snow Light Freezing Fog
1:53 PM 24.8 °F 16.9 °F 21.2 °F 86% 29.84 in 0.2 mi West 6.9 mph - N/A Fog , Snow Light Freezing Fog
1:58 PM 25.3 °F 17.6 °F 21.9 °F 87% 29.90 in 0.2 mi WNW 6.9 mph - 0.03 in Fog , Snow Light Freezing Fog
2:13 PM 24.8 °F - 23.0 °F 93% 29.84 in 0.5 mi West 2.3 mph - N/A Fog , Snow Light Freezing Fog
2:18 PM 24.8 °F - 23.0 °F 93% 29.84 in 0.8 mi NNW 2.3 mph - N/A Snow Light Snow
2:23 PM 24.8 °F 19.1 °F 23.0 °F 93% 29.85 in 1.2 mi North 4.6 mph - N/A Snow Light Snow
2:28 PM 24.8 °F 16.9 °F 23.0 °F 93% 29.85 in 0.5 mi Variable 6.9 mph - N/A Fog , Snow Light Freezing Fog
2:33 PM 24.8 °F 19.1 °F 21.2 °F 86% 29.85 in 0.2 mi North 4.6 mph - N/A Fog , Snow Light Freezing Fog
2:38 PM 24.8 °F 16.1 °F 23.0 °F 93% 29.86 in 0.5 mi North 8.1 mph - N/A Fog , Snow Light Freezing Fog
2:58 PM 24.4 °F 16.5 °F 20.8 °F 86% 29.91 in 0.5 mi NNW 6.9 mph - 0.05 in Fog , Snow Light Freezing Fog
3:08 PM 24.8 °F 16.1 °F 21.2 °F 86% 29.86 in 0.8 mi NNW 8.1 mph - N/A Snow Light Snow
3:13 PM 24.8 °F 16.1 °F 21.2 °F 86% 29.87 in 0.8 mi NNW 8.1 mph - N/A Snow Light Snow
3:28 PM 24.8 °F 16.9 °F 21.2 °F 86% 29.87 in 1.2 mi NNE 6.9 mph - N/A Snow Light Snow
3:33 PM 24.8 °F 16.9 °F 21.2 °F 86% 29.87 in 4.0 mi NNE 6.9 mph - N/A Snow Light Snow
3:38 PM 24.8 °F 16.9 °F 21.2 °F 86% 29.87 in 9.0 mi NNE 6.9 mph - N/A Snow Light Snow
3:48 PM 24.8 °F 17.9 °F 19.4 °F 80% 29.87 in 10.0 mi NNE 5.8 mph - N/A Snow Light Snow
3:58 PM 25.0 °F 17.1 °F 19.9 °F 81% 29.93 in 4.0 mi North 6.9 mph - 0.01 in Snow Light Snow
4:03 PM 24.8 °F 14.0 °F 19.4 °F 80% 29.88 in 1.5 mi North 11.5 mph - N/A Snow Light Snow
4:08 PM 24.8 °F 15.3 °F 19.4 °F 80% 29.88 in 1.0 mi North 9.2 mph - N/A Snow Light Snow
4:13 PM 24.8 °F 16.1 °F 21.2 °F 86% 29.88 in 0.8 mi NNW 8.1 mph - N/A Snow Light Snow
4:28 PM 24.8 °F 17.9 °F 21.2 °F 86% 29.88 in 1.0 mi NNW 5.8 mph - N/A Snow Light Snow
4:33 PM 24.8 °F 17.9 °F 21.2 °F 86% 29.89 in 2.0 mi NNW 5.8 mph - N/A Snow Light Snow
4:43 PM 24.8 °F 20.5 °F 21.2 °F 86% 29.89 in 3.0 mi NW 3.5 mph - N/A Snow Light Snow
4:58 PM 24.3 °F 18.4 °F 21.0 °F 87% 29.94 in 5.0 mi NNW 4.6 mph - 0.00 in Snow Light Snow
5:03 PM 24.8 °F 20.5 °F 21.2 °F 86% 29.89 in 7.0 mi North 3.5 mph - N/A Snow Light Snow
5:13 PM 24.8 °F 20.5 °F 21.2 °F 86% 29.89 in 9.0 mi NNW 3.5 mph - N/A Snow Light Snow
5:23 PM 24.8 °F - 21.2 °F 86% 29.90 in 4.0 mi NNW 2.3 mph - N/A Snow Light Snow
5:28 PM 24.8 °F - 21.2 °F 86% 29.90 in 5.0 mi NNW 2.3 mph - N/A Snow Light Snow
5:33 PM 24.8 °F 20.5 °F 21.2 °F 86% 29.90 in 2.5 mi NW 3.5 mph - N/A Snow Light Snow
5:38 PM 24.8 °F - 21.2 °F 86% 29.91 in 1.5 mi NNW 2.3 mph - N/A Snow Light Snow
5:48 PM 23.0 °F 18.4 °F 21.2 °F 93% 29.91 in 2.5 mi WNW 3.5 mph - N/A Snow Light Snow
5:58 PM 23.9 °F - 20.7 °F 87% 29.97 in 4.0 mi West 2.3 mph - 0.00 in Snow Light Snow
6:03 PM 23.0 °F - 21.2 °F 93% 29.92 in 6.0 mi Calm Calm - N/A Snow Light Snow
6:23 PM 23.0 °F - 21.2 °F 93% 29.92 in 3.0 mi WSW 2.3 mph - N/A Snow Light Snow
6:33 PM 23.0 °F 18.4 °F 21.2 °F 93% 29.92 in 6.0 mi WSW 3.5 mph - N/A Snow Light Snow
6:56 PM 23.0 °F 17.0 °F 21.2 °F 93% 29.93 in 10.0 mi SSW 4.6 mph - N/A   Overcast
6:58 PM 23.0 °F 17.0 °F 21.2 °F 93% 29.98 in 10.0 mi SSW 4.6 mph - 0.00 in   Overcast
7:00 PM 23.0 °F 17.0 °F 21.2 °F 93% 29.93 in 10.0 mi SSW 4.6 mph - N/A Snow Light Snow
7:40 PM 23.0 °F 14.7 °F 21.2 °F 93% 29.93 in 8.0 mi SSW 6.9 mph - N/A Snow Light Snow
7:44 PM 23.0 °F 15.8 °F 21.2 °F 93% 29.93 in 8.0 mi SSW 5.8 mph - N/A   Overcast
7:58 PM 23.9 °F 14.2 °F 21.2 °F 89% 29.98 in 9.0 mi SSW 9.2 mph - 0.00 in   Overcast
8:00 PM 23.0 °F 13.1 °F 21.2 °F 93% 29.93 in 8.0 mi SSW 9.2 mph - N/A Snow Light Snow
8:20 PM 23.0 °F 12.4 °F 21.2 °F 93% 29.93 in 3.0 mi SW 10.4 mph - N/A Snow Light Snow
8:25 PM 23.0 °F 12.4 °F 21.2 °F 93% 29.93 in 2.0 mi SSW 10.4 mph - N/A Snow Light Snow
8:30 PM 23.0 °F 13.1 °F 21.2 °F 93% 29.93 in 2.5 mi SSW 9.2 mph - N/A Snow Light Snow
8:35 PM 23.0 °F 13.1 °F 21.2 °F 93% 29.94 in 4.0 mi SW 9.2 mph - N/A Snow Light Snow
8:40 PM 23.0 °F 17.0 °F 21.2 °F 93% 29.94 in 4.0 mi SW 4.6 mph - N/A Snow Light Snow
8:58 PM 23.7 °F 17.8 °F 20.8 °F 89% 29.99 in 5.0 mi WSW 4.6 mph - 0.01 in Snow Light Snow
9:03 PM 23.0 °F 17.0 °F 21.2 °F 93% 29.94 in 5.0 mi WSW 4.6 mph - N/A Snow Light Snow
9:23 PM 23.0 °F 17.0 °F 21.2 °F 93% 29.95 in 4.0 mi West 4.6 mph - N/A Snow Light Snow
9:33 PM 23.0 °F 15.8 °F 21.2 °F 93% 29.95 in 3.0 mi West 5.8 mph - N/A Snow Light Snow
9:53 PM 23.0 °F - 21.2 °F 93% 29.96 in 5.0 mi West 1.2 mph - N/A Snow Light Snow
9:58 PM 23.2 °F 18.7 °F 20.8 °F 91% 30.03 in 4.0 mi WNW 3.5 mph - 0.00 in Snow Light Snow
10:03 PM 23.0 °F 17.0 °F 21.2 °F 93% 29.96 in 4.0 mi WNW 4.6 mph - N/A Snow Light Snow
10:43 PM 23.0 °F - 21.2 °F 93% 29.96 in 6.0 mi NW 2.3 mph - N/A Snow Light Snow
10:48 PM 23.0 °F - 21.2 °F 93% 29.96 in 4.0 mi NW 1.2 mph - N/A Snow Light Snow
10:58 PM 23.0 °F - 20.7 °F 91% 30.03 in 7.0 mi Calm Calm - 0.00 in Snow Light Snow
10:59 PM 23.0 °F - 21.2 °F 93% 29.96 in 6.0 mi Calm Calm - N/A   Scattered Clouds
11:09 PM 23.0 °F - 19.4 °F 86% 29.96 in 8.0 mi Calm Calm - N/A   Mostly Cloudy
11:14 PM 21.2 °F - 19.4 °F 93% 29.96 in 9.0 mi Calm Calm - N/A   Scattered Clouds
11:58 PM 17.8 °F 12.5 °F 15.3 °F 90% 30.05 in 10.0 mi SE 3.5 mph - 0.00 in   Clear